Regional Weather Roundup
Issued by NWS Charleston, SC

Home | Current Version | Previous Version | Text Only | Print | Product List | Glossary On
Versions: 1 2 3 4 5 6 7 8 9 10 11 12 13 14 15 16 17 18 19 20 21 22 23 24 25 26 27 28 29 30 31 32 33 34 35 36 37 38 39 40 41 42 43 44 45 46 47 48 49 50
000
ASUS42 KCHS 251628
RWRCHS

REGIONAL WEATHER ROUNDUP
NATIONAL WEATHER SERVICE CHARLESTON SC
1200 PM EDT SUN SEP 25 2016

NOTE: "FAIR" INDICATES FEW OR NO CLOUDS BELOW 12,000 FEET WITH NO
SIGNIFICANT WEATHER AND/OR OBSTRUCTIONS TO VISIBILITY.

NOT ALL STATIONS ARE QUALITY CONTROLLED. USE DATA WITH CAUTION...
ESPECIALLY DEWPOINT OBSERVATIONS.

SCZ027-030-031-034>040-042>050-251700-
...SOUTHEAST SOUTH CAROLINA...

CITY           SKY/WX    TMP DP  RH WIND       PRES   REMARKS
N CHARLESTON   PTSUNNY   83  70  64 E9        30.09F
WATERFRONT PRK   N/A     80  75  84 NE9       30.07F
MOUNT PLEASANT FAIR      82  73  74 N6        30.09F
JOHNS ISLAND   FAIR      82  73  74 NE9       30.09F
PINOPOLIS        N/A     79  75  89 VRB3      30.05S
MONCKS CORNER  FAIR      82  72  69 E5        30.10F
SUMMERVILLE    PTSUNNY   82  73  74 N7        30.11F
BEAUFORT MCAS  MOSUNNY   85  71  63 NE7       30.10S HX  90
BEAUFORT ARPT  PTSUNNY   81  72  74 NE9       30.09F
HILTON HEAD IS PTSUNNY   81  75  83 N10       30.10S
WALTERBORO     MOSUNNY   86  70  58 E10       30.11F HX  90
ALLENDALE      FAIR      86  66  51 VRB7      30.09F

...SOUTHERN MIDLANDS AND PEE DEE...

CITY           SKY/WX    TMP DP  RH WIND       PRES   REMARKS
GEORGETOWN     PTSUNNY   81  72  74 NE8       30.11F
KINGSTREE      FAIR      86  68  54 E5        30.11F
ORANGEBURG     SUNNY     84  67  56 E7        30.11F
BARNWELL       NOT AVBL
AIKEN          FAIR      82  66  57 CALM      30.14F
MANNING        FAIR      82  68  61 E3        30.10F
COLUMBIA       MOSUNNY   86  68  54 VRB5      30.10F
SUMTER         SUNNY     85  67  54 SE5       30.09F
FLORENCE       MOSUNNY   84  68  58 E6        30.12F
MYRTLE BEACH   MOSUNNY   81  68  65 E7        30.14S
N MYRTLE BEACH MOSUNNY   81  72  74 NE8       30.11F

$$

GAZ063-065-086>088-099>101-113>116-118-119-134>141-150-251700-
...SOUTHEAST GEORGIA...

CITY           SKY/WX    TMP DP  RH WIND       PRES   REMARKS
SAVANNAH ARPT  PTSUNNY   85  71  63 NE8       30.09S HX  90
HUNTER AAF     PTSUNNY   83  78  83 NE6       30.07S HX  93
FORT STEWART   MOSUNNY   85  72  65 NE9       30.07S HX  91
STATESBORO     MOSUNNY   85  74  69 NE5       30.09S HX  93
SYLVANIA       NOT AVBL
CLAXTON        FAIR      85  74  69 NE9       30.09S HX  93

...CSRA...CENTRAL AND FAR SOUTHEAST GEORGIA...

CITY           SKY/WX    TMP DP  RH WIND       PRES   REMARKS
THOMSON        SUNNY     89  72  57 SE5       30.14F HX  95
AUGUSTA-BUSH   MOSUNNY   86  70  58 NE6       30.09F HX  90
AUGUSTA-DANIEL SUNNY     87  66  49 E7        30.11F
SWAINSBORO     FAIR      86  70  58 CALM      30.10S HX  90
VIDALIA        PTSUNNY   86  75  70 CALM      30.09S HX  95
EASTMAN        FAIR      89  58  34 SE3       30.10F
HAZLEHURST     FAIR      88  74  64 NW6       30.07S HX  96
ALMA           CLOUDY    84  72  67 CALM      30.07F
WAYCROSS       PTSUNNY   88  75  66 E6        30.07S HX  97
JESUP          PTSUNNY   86  77  74 E8        30.08F HX  97
BAXLEY         PTSUNNY   86  77  74 E5        30.08S HX  97
BRUNSWICK      PTSUNNY   86  77  74 NE9       30.08F HX  97
SAINT SIMONS   PTSUNNY   83  73  72 NE8       30.07S

$$

SCZ027-028-034-036>038-045-046-048>050-GAZ119-141-251700-
...LAKE AND SUPPLEMENTAL COASTAL OBSERVATIONS...

STATION/POSITION TIME  TEMP    WIND        PRES    WAVE   SWELL
                       AIR SEA DIR/SP/G            HT/PER HT/PER/DIR
                 (UTC) (F)     (DEG/KT/KT) (MB)    (FT/S) (FT/S/D)
WINYAH BAY       1530   80      60/ 11     1019.0S
LAKE MURRAY      1550   83      CALM  /  1 1019.0F
ACE BASIN NERRS  1545   82      40/  3     1019.0F
FORT PULASKI     1600   80 81   30/ 10/ 12 1019.4
SAPELO ISLAND    1600   82      20/  9     1019.0

$$

ANZ835-935-AMZ111-154-330-350-352-354-370-450-454-472-251700-
...C-MAN AND BUOY OBSERVATIONS...

STATION/POSITION TIME  TEMP    WIND        PRES    WAVE   SWELL
                       AIR SEA DIR/SP/G            HT/PER HT/PER/DIR
                 (UTC) (F)     (DEG/KT/KT) (MB)    (FT/S) (FT/S/D)
BUOY 41004       1550   81 82   50/ 16/ 17 1017.5F   4/11   3/ 90/11
BUOY 41008       1550   80 82   30/ 16/ 17 1018.1R   3/10   3/110/10
FOLLY BEACH CMAN 1600   80      50/ 11/ 13 1019.0F
CAPERS NEARSHORE 1508   78 81   30/ 12/ 16 1019.2R
FRIPP NEARSHORE  1608   80 81   40/ 10/ 14 1018.9F


STATION/POSITION TIME  TEMP    WIND        PRES    WAVE   SWELL
                       AIR SEA DIR/SP/G            HT/PER HT/PER/DIR
                 (UTC) (F)     (DEG/KT/KT) (MB)    (FT/S) (FT/S/D)
5E ST. MARYS GA  1601      83                N/A     3/11   2/120/11
FRYING PAN BUOY  1610   80 82   40/ 16/ 17 1018.6
BUOY 41025       1550   74 85   30/ 19/ 23 1019.5F   6/ 5   2/100/11
CAPE LOOKOUT NC  1600   76      40/ 16/ 18 1019.9R
BUOY 41002       1550   82 84   70/ 10/ 12 1017.3R   3/10   3/ 90/10
BUOY 41010       NOT AVBL
ST AUGUSTINE FL  1600   81 84   20/  8/ 10 1019.0F


$$



USA.gov is the U.S. government's official web portal to all federal, state and local government web resources and services.